Precipitable_Water
0.29 0.30 0.30 0.28 0.29 0.34 0.35 0.36 0.32 0.30 0.32 0.36 0.41 0.43 0.48 0.52 0.53 0.51 0.53 0.54 0.55 0.58 0.57 0.56 0.57 0.56 0.53 0.54 0.51 0.51 0.46 0.44 0.43 0.45 0.46 0.45 0.44 0.45 0.45 0.47 0.49 0.49 0.48 0.45
0.25 0.32 0.34 0.29 0.33 0.37 0.37 0.37 0.36 0.36 0.33 0.42 0.45 0.53 0.52 0.50 0.52 0.53 0.55 0.57 0.59 0.56 0.54 0.53 0.50 0.48 0.50 0.50 0.50 0.47 0.44 0.45 0.47 0.46 0.46 0.47 0.45 0.44 0.44 0.44 0.44 0.44 0.40 0.34
0.22 0.31 0.33 0.24 0.31 0.35 0.36 0.38 0.35 0.29 0.34 0.43 0.46 0.50 0.51 0.50 0.53 0.54 0.55 0.56 0.57 0.55 0.48 0.46 0.49 0.50 0.48 0.44 0.44 0.44 0.42 0.39 0.40 0.39 0.38 0.38 0.39 0.39 0.37 0.34 0.32 0.30 0.29 0.28
0.29 0.34 0.23 0.33 0.42 0.42 0.38 0.38 0.39 0.39 0.42 0.48 0.51 0.54 0.56 0.58 0.55 0.55 0.57 0.55 0.52 0.46 0.48 0.50 0.51 0.46 0.42 0.41 0.40 0.38 0.36 0.37 0.37 0.37 0.32 0.32 0.30 0.28 0.26 0.25 0.23 0.23 0.23 0.24
0.29 0.30 0.35 0.36 0.39 0.38 0.36 0.35 0.43 0.43 0.49 0.52 0.55 0.55 0.52 0.59 0.61 0.61 0.59 0.52 0.47 0.50 0.52 0.49 0.42 0.40 0.38 0.38 0.36 0.36 0.35 0.34 0.33 0.30 0.28 0.26 0.22 0.21 0.21 0.21 0.21 0.22 0.23 0.21
0.36 0.30 0.25 0.34 0.43 0.49 0.49 0.31 0.51 0.53 0.53 0.53 0.54 0.39 0.46 0.61 0.62 0.58 0.49 0.47 0.47 0.50 0.45 0.39 0.38 0.41 0.38 0.37 0.33 0.32 0.34 0.33 0.32 0.29 0.24 0.20 0.20 0.20 0.21 0.21 0.21 0.20 0.20 0.21
0.36 0.33 0.36 0.43 0.48 0.53 0.33 0.36 0.55 0.58 0.56 0.54 0.51 0.54 0.59 0.60 0.54 0.47 0.44 0.45 0.49 0.43 0.37 0.35 0.39 0.38 0.34 0.34 0.31 0.34 0.34 0.32 0.29 0.24 0.21 0.20 0.20 0.20 0.20 0.20 0.19 0.19 0.19 0.20
0.36 0.33 0.28 0.51 0.53 0.45 0.50 0.57 0.58 0.60 0.59 0.59 0.61 0.59 0.55 0.51 0.44 0.39 0.39 0.43 0.43 0.37 0.32 0.35 0.38 0.35 0.34 0.36 0.36 0.34 0.32 0.29 0.24 0.23 0.21 0.20 0.19 0.19 0.19 0.19 0.19 0.19 0.19 0.20
0.42 0.40 0.51 0.55 0.59 0.61 0.61 0.59 0.59 0.60 0.63 0.61 0.56 0.55 0.46 0.38 0.36 0.35 0.38 0.41 0.39 0.33 0.30 0.33 0.35 0.35 0.31 0.31 0.33 0.32 0.30 0.26 0.23 0.21 0.21 0.20 0.19 0.19 0.19 0.21 0.21 0.21 0.20 0.19
0.47 0.47 0.51 0.60 0.63 0.65 0.67 0.64 0.64 0.63 0.62 0.58 0.50 0.45 0.39 0.35 0.33 0.32 0.35 0.35 0.34 0.33 0.30 0.29 0.30 0.31 0.32 0.32 0.32 0.31 0.27 0.24 0.21 0.21 0.22 0.21 0.21 0.22 0.23 0.23 0.21 0.20 0.19 0.18
0.46 0.50 0.54 0.59 0.63 0.64 0.65 0.62 0.60 0.60 0.55 0.47 0.41 0.36 0.33 0.33 0.31 0.31 0.33 0.32 0.31 0.31 0.31 0.29 0.32 0.33 0.34 0.32 0.32 0.29 0.26 0.23 0.21 0.23 0.23 0.22 0.23 0.24 0.25 0.24 0.23 0.21 0.20 0.19
0.38 0.55 0.59 0.59 0.64 0.65 0.57 0.52 0.51 0.43 0.38 0.36 0.35 0.33 0.33 0.30 0.29 0.29 0.29 0.31 0.30 0.31 0.32 0.33 0.35 0.33 0.34 0.32 0.31 0.27 0.23 0.22 0.22 0.22 0.23 0.23 0.23 0.24 0.26 0.24 0.24 0.23 0.21 0.20
0.53 0.64 0.60 0.59 0.60 0.59 0.50 0.40 0.40 0.37 0.34 0.32 0.31 0.32 0.31 0.29 0.29 0.29 0.30 0.31 0.28 0.28 0.30 0.31 0.31 0.32 0.32 0.31 0.27 0.23 0.22 0.22 0.22 0.23 0.22 0.22 0.23 0.22 0.20 0.22 0.23 0.21 0.20 0.19
0.59 0.55 0.47 0.49 0.46 0.45 0.43 0.38 0.32 0.30 0.30 0.31 0.31 0.30 0.29 0.28 0.29 0.28 0.27 0.27 0.28 0.30 0.29 0.29 0.31 0.30 0.31 0.26 0.22 0.21 0.22 0.23 0.23 0.23 0.23 0.23 0.23 0.22 0.21 0.20 0.18 0.18 0.19 0.20
0.50 0.49 0.47 0.47 0.43 0.37 0.32 0.29 0.27 0.25 0.26 0.26 0.27 0.28 0.29 0.27 0.24 0.23 0.24 0.27 0.31 0.28 0.28 0.31 0.31 0.29 0.27 0.24 0.23 0.23 0.23 0.22 0.22 0.24 0.24 0.24 0.23 0.22 0.22 0.20 0.19 0.19 0.19 0.17
0.45 0.43 0.40 0.34 0.33 0.31 0.30 0.30 0.28 0.25 0.24 0.25 0.25 0.26 0.26 0.26 0.25 0.25 0.27 0.29 0.26 0.26 0.30 0.30 0.28 0.26 0.23 0.22 0.22 0.22 0.22 0.23 0.24 0.23 0.23 0.23 0.23 0.22 0.21 0.20 0.19 0.20 0.18 0.16
0.40 0.33 0.31 0.28 0.28 0.29 0.27 0.26 0.25 0.23 0.23 0.23 0.23 0.26 0.26 0.26 0.25 0.25 0.28 0.29 0.31 0.32 0.33 0.30 0.25 0.22 0.21 0.21 0.21 0.23 0.23 0.24 0.24 0.23 0.23 0.23 0.23 0.22 0.21 0.19 0.20 0.19 0.17 0.18
0.35 0.33 0.32 0.31 0.28 0.26 0.25 0.26 0.26 0.23 0.22 0.24 0.28 0.27 0.26 0.27 0.27 0.27 0.29 0.32 0.33 0.33 0.32 0.28 0.24 0.20 0.20 0.22 0.24 0.24 0.24 0.24 0.23 0.22 0.23 0.23 0.23 0.22 0.20 0.19 0.20 0.19 0.16 0.18
0.29 0.25 0.25 0.25 0.26 0.26 0.26 0.26 0.26 0.25 0.25 0.26 0.26 0.27 0.29 0.31 0.31 0.31 0.32 0.32 0.32 0.29 0.27 0.24 0.21 0.20 0.21 0.23 0.24 0.24 0.24 0.23 0.23 0.23 0.23 0.23 0.23 0.22 0.20 0.19 0.20 0.18 0.17 0.18
0.24 0.25 0.26 0.25 0.26 0.23 0.21 0.23 0.25 0.24 0.24 0.27 0.28 0.28 0.29 0.31 0.32 0.32 0.33 0.32 0.32 0.30 0.26 0.22 0.21 0.21 0.22 0.23 0.24 0.24 0.24 0.23 0.23 0.23 0.23 0.23 0.23 0.21 0.20 0.18 0.19 0.19 0.17 0.18
0.23 0.23 0.21 0.21 0.21 0.22 0.24 0.26 0.26 0.25 0.27 0.29 0.30 0.30 0.31 0.33 0.34 0.33 0.32 0.30 0.33 0.30 0.24 0.22 0.22 0.21 0.22 0.23 0.23 0.23 0.23 0.23 0.24 0.24 0.23 0.23 0.23 0.22 0.21 0.19 0.18 0.20 0.18 0.17
0.23 0.21 0.21 0.22 0.23 0.23 0.24 0.26 0.28 0.29 0.29 0.29 0.32 0.33 0.33 0.32 0.32 0.34 0.34 0.32 0.33 0.28 0.23 0.22 0.21 0.22 0.23 0.23 0.23 0.24 0.23 0.24 0.24 0.24 0.24 0.24 0.23 0.22 0.22 0.20 0.18 0.19 0.19 0.17
0.22 0.23 0.23 0.23 0.24 0.25 0.27 0.29 0.29 0.30 0.30 0.31 0.32 0.33 0.33 0.32 0.34 0.31 0.28 0.33 0.31 0.26 0.23 0.22 0.22 0.23 0.23 0.23 0.23 0.23 0.23 0.24 0.24 0.24 0.24 0.24 0.24 0.23 0.22 0.21 0.20 0.19 0.18 0.17
0.24 0.24 0.24 0.27 0.27 0.26 0.24 0.27 0.30 0.32 0.33 0.34 0.35 0.37 0.34 0.32 0.34 0.35 0.36 0.34 0.29 0.25 0.22 0.23 0.23 0.23 0.24 0.24 0.23 0.22 0.23 0.24 0.24 0.25 0.25 0.25 0.24 0.24 0.23 0.22 0.21 0.20 0.19 0.17
0.26 0.26 0.27 0.27 0.26 0.26 0.28 0.29 0.30 0.30 0.32 0.33 0.34 0.34 0.35 0.37 0.35 0.34 0.34 0.31 0.29 0.26 0.25 0.24 0.23 0.23 0.24 0.24 0.23 0.23 0.24 0.24 0.24 0.25 0.25 0.24 0.24 0.23 0.23 0.23 0.22 0.21 0.20 0.19
0.26 0.26 0.27 0.28 0.28 0.29 0.29 0.30 0.29 0.31 0.32 0.31 0.33 0.35 0.35 0.37 0.37 0.35 0.33 0.32 0.30 0.27 0.24 0.24 0.23 0.23 0.23 0.23 0.23 0.23 0.24 0.24 0.24 0.25 0.24 0.24 0.24 0.23 0.23 0.23 0.22 0.22 0.21 0.20
0.27 0.26 0.25 0.26 0.29 0.29 0.31 0.32 0.31 0.30 0.34 0.33 0.33 0.35 0.35 0.36 0.36 0.35 0.34 0.32 0.30 0.27 0.25 0.24 0.23 0.22 0.23 0.23 0.23 0.23 0.23 0.24 0.24 0.24 0.25 0.25 0.24 0.24 0.24 0.24 0.23 0.23 0.22 0.22
Wind_Speed
17 19 20 22 23 22 20 21 20 26 23 26 29 28 26 29 33 37 39 39 41 42 45 45 46 47 48 48 50 51 51 52 52 52 52 49 47 44 41 39 37 34 33 32
19 18 19 22 24 22 19 20 23 26 28 28 27 26 29 33 38 39 40 41 42 45 46 46 46 47 48 49 51 51 51 52 52 51 50 46 43 39 37 34 34 34 33 33
19 18 21 20 16 15 18 20 21 25 29 26 27 29 34 37 39 41 41 42 43 46 46 47 48 48 49 50 50 50 51 50 49 48 47 44 40 37 35 34 33 33 33 34
20 20 16 16 18 23 22 24 26 27 28 29 31 35 36 38 41 41 42 44 46 46 47 47 49 50 50 49 49 49 48 48 47 47 44 39 37 36 35 34 33 32 32 31
20 20 24 23 22 19 22 26 26 27 27 31 35 39 38 39 40 39 44 47 46 47 47 48 51 50 48 50 50 47 47 48 45 42 38 36 35 33 32 31 32 32 32 34
19 21 22 21 22 23 24 28 24 27 33 40 38 38 40 39 41 44 47 46 47 46 48 51 51 49 50 50 48 46 46 45 41 37 36 34 32 32 32 33 33 34 35 35
22 22 24 25 23 23 23 27 33 37 40 39 36 36 39 40 43 47 46 47 46 48 50 51 50 50 49 48 45 44 43 39 36 35 33 32 32 33 34 34 35 35 35 35
19 19 22 19 22 25 32 36 38 41 38 36 35 38 41 44 46 47 47 47 46 49 50 51 50 50 48 46 43 39 37 35 34 33 33 33 34 35 35 35 35 35 35 34
20 23 27 30 33 36 36 39 39 37 33 34 38 40 42 44 46 47 48 47 48 49 50 51 49 46 44 41 37 33 33 33 32 33 33 34 35 35 35 34 34 34 34 34
27 28 30 32 36 35 34 35 35 34 35 37 39 41 44 45 47 48 47 47 49 50 50 49 47 43 41 37 33 31 31 31 32 33 34 34 35 34 34 34 34 33 33 31
30 34 34 34 32 33 34 36 37 36 37 40 42 44 45 46 47 48 48 49 49 49 48 47 44 41 37 33 30 29 30 31 32 33 34 35 33 32 32 33 32 32 30 29
35 35 34 37 35 36 37 38 38 39 41 42 42 44 45 47 48 49 50 50 49 47 46 44 41 37 33 30 28 28 29 30 31 33 33 33 31 31 31 31 31 30 29 26
35 36 36 36 36 36 36 37 38 40 41 43 43 44 46 48 48 50 50 50 48 45 43 39 35 32 29 27 26 26 27 29 30 31 31 30 30 30 30 30 29 27 25 23
34 36 35 35 34 35 38 39 40 41 43 44 45 47 47 48 50 50 51 49 46 42 38 34 31 28 26 25 25 25 26 28 29 29 29 29 30 28 28 27 26 24 24 22
34 34 33 32 34 36 38 41 42 43 45 46 46 48 48 49 51 51 50 46 42 37 33 30 26 24 23 23 24 24 25 27 27 26 28 28 27 27 27 26 23 23 23 19
31 31 32 33 35 38 41 43 44 45 46 47 49 49 49 49 50 50 47 43 37 33 29 24 22 21 21 22 22 23 23 24 24 25 26 26 25 26 26 24 23 23 20 16
31 32 34 37 39 42 42 43 44 47 49 50 50 49 50 50 49 47 43 38 33 27 22 20 19 19 19 20 21 22 22 22 23 25 25 24 24 25 25 23 22 21 18 15
32 35 38 40 42 44 45 46 48 49 48 49 49 49 49 48 47 43 36 30 24 19 17 17 17 18 18 19 20 21 21 21 23 24 24 23 23 24 24 22 21 20 17 15
36 39 41 43 44 46 48 49 49 49 49 49 48 47 46 45 41 34 28 22 18 16 16 16 16 16 17 18 20 20 20 21 23 23 23 22 22 23 23 22 20 19 17 14
40 41 43 45 46 47 48 47 48 48 47 45 44 43 41 38 33 27 20 17 15 15 15 15 15 15 17 18 19 19 20 21 22 23 22 21 21 22 22 21 20 18 16 14
42 44 45 46 47 46 46 46 45 45 44 41 40 37 34 32 25 19 16 14 15 14 15 15 15 15 17 18 19 20 20 20 22 22 22 21 21 21 21 20 19 18 16 13
43 44 44 45 45 46 45 45 44 42 41 38 34 31 29 25 20 17 15 15 14 14 15 15 15 16 17 18 20 19 19 20 21 21 21 20 20 20 20 19 18 17 16 13
43 43 44 43 44 45 45 43 41 40 37 33 30 27 25 22 18 15 15 15 15 15 15 15 15 17 17 18 19 19 20 20 20 21 21 21 20 20 19 19 18 16 15 14
42 42 41 41 42 41 40 38 36 32 30 29 27 25 22 19 17 15 15 15 15 16 16 16 16 17 18 18 19 19 19 20 21 21 21 21 20 20 19 19 18 16 15 14
39 39 39 39 38 37 37 36 32 29 28 27 24 23 20 16 15 14 14 15 16 17 16 16 17 18 18 18 19 19 19 20 21 21 21 21 21 21 20 19 18 17 15 14
36 36 37 36 35 35 35 32 29 28 26 24 23 21 17 15 14 14 14 15 16 16 17 17 17 17 17 18 18 19 20 21 21 21 21 22 22 22 21 20 19 17 16 14
33 34 34 33 31 32 30 28 27 26 24 23 21 18 15 15 15 15 15 16 17 17 17 17 16 16 16 17 18 19 21 22 21 21 21 22 23 22 22 21 19 18 16 15
Wind_Direction
291 291 293 294 294 291 284 286 288 294 293 297 302 303 302 306 307 308 311 310 311 312 311 311 311 311 311 311 312 312 313 314 314 314 314 313 312 310 308 305 304 302 301 298
296 297 298 297 293 286 288 292 288 292 295 300 303 302 304 308 309 310 310 311 311 313 313 312 312 312 311 312 313 313 314 314 313 314 314 314 314 313 310 307 304 302 301 300
298 303 303 307 297 289 293 294 295 297 300 303 304 303 307 308 310 312 312 313 313 314 312 313 313 314 313 313 314 315 316 316 316 316 316 314 313 311 309 308 306 304 302 301
299 307 295 296 300 293 290 294 300 299 302 303 302 303 306 308 312 313 314 313 312 313 314 314 314 315 313 315 316 316 317 317 316 316 316 316 314 313 311 309 308 307 305 304
297 294 296 302 301 298 295 298 303 303 304 305 306 306 307 313 315 314 316 314 313 315 314 314 314 314 313 314 315 314 315 318 317 318 317 317 316 315 314 313 311 309 307 305
297 292 293 300 301 303 303 302 306 310 311 310 311 308 311 313 313 315 314 313 313 314 315 315 315 314 313 314 314 314 316 318 318 319 319 318 317 316 315 314 312 310 309 307
289 290 293 298 299 302 307 303 308 307 308 307 308 311 313 313 312 314 313 313 312 314 315 315 315 314 313 312 312 314 317 318 319 320 320 319 318 317 316 315 314 313 311 309
295 291 298 300 302 305 301 303 304 308 307 307 308 311 311 311 311 312 313 313 313 315 316 316 316 315 315 314 313 314 317 319 320 321 321 320 319 319 318 317 316 316 314 312
287 289 296 296 298 302 304 304 306 308 308 308 308 308 310 312 313 313 313 313 314 315 316 317 317 317 316 316 314 314 317 319 321 321 321 321 321 321 320 320 319 318 317 315
295 297 297 301 302 305 308 309 311 310 307 307 306 307 308 311 312 313 314 314 314 315 316 317 317 317 317 317 315 315 316 319 321 322 322 323 322 322 322 322 322 321 320 319
295 299 300 299 304 305 304 306 306 305 305 306 307 307 309 311 313 314 314 315 315 314 315 316 316 316 316 315 314 314 316 319 322 323 324 324 324 325 325 325 325 325 324 322
297 301 301 302 303 303 305 306 306 305 307 308 308 309 310 312 313 314 315 315 316 315 314 315 315 315 316 316 314 314 317 320 323 324 326 327 327 327 328 329 329 329 328 328
298 301 301 302 302 304 306 306 307 308 309 309 309 310 311 312 313 314 315 315 315 315 315 316 316 316 317 317 317 317 319 321 324 327 328 329 330 330 330 332 332 334 335 334
300 301 302 302 303 303 305 307 309 309 309 309 310 311 311 312 313 314 315 315 314 314 315 316 316 316 317 318 319 321 322 324 327 329 331 333 333 333 334 335 336 337 338 337
301 302 301 301 303 306 306 307 307 308 309 310 311 311 312 312 313 314 315 314 314 313 313 315 316 317 319 321 322 324 326 328 330 333 335 336 337 338 338 339 340 340 341 342
299 301 302 304 305 305 306 307 307 309 310 310 310 311 312 312 313 314 314 313 312 310 310 311 315 317 319 323 325 327 330 332 335 337 338 339 341 342 343 343 343 344 345 347
300 303 303 303 303 304 306 307 308 309 310 310 310 312 312 312 313 314 313 311 310 307 307 310 314 319 322 326 329 331 334 336 338 339 341 342 344 345 346 346 346 348 349 350
303 303 303 304 306 306 307 307 309 310 310 311 311 312 312 313 313 313 312 310 309 306 307 310 314 317 322 327 331 333 335 337 340 341 343 343 345 347 348 348 349 351 351 353
305 305 306 306 307 307 307 308 308 309 310 311 311 312 314 314 314 314 312 308 306 306 307 311 313 317 321 327 331 333 335 337 339 341 342 344 346 348 349 349 350 352 353 353
305 306 306 307 308 308 308 308 309 310 311 311 311 313 315 316 315 313 309 305 303 306 308 311 313 316 320 325 329 332 332 334 337 339 341 341 343 346 348 349 350 350 352 352
305 305 306 307 307 309 309 309 310 310 311 311 311 312 314 318 317 312 307 304 305 306 308 310 311 314 319 322 325 327 329 331 335 337 338 338 340 342 344 346 348 349 349 348
305 306 307 308 308 309 310 310 310 310 311 311 310 310 313 316 313 308 304 303 306 304 308 310 311 313 317 321 325 325 327 329 332 335 336 336 336 338 340 341 341 344 346 344
305 306 307 308 309 310 312 312 311 311 310 309 308 308 309 310 305 303 304 304 303 304 307 308 309 313 315 320 325 323 324 327 329 332 333 333 332 333 336 337 337 335 338 340
306 307 308 309 311 312 314 315 315 314 314 313 309 306 304 304 300 298 300 302 304 304 306 305 308 311 314 316 321 324 325 326 327 329 331 331 330 329 328 330 331 331 328 330
306 308 309 310 312 313 315 315 314 312 312 313 310 308 301 295 295 299 301 304 305 304 305 305 306 309 313 315 318 320 321 325 328 328 328 329 329 327 324 323 323 323 321 319
308 310 310 310 311 313 315 315 313 313 312 312 309 307 298 292 291 294 300 306 308 306 305 307 306 308 311 315 319 322 324 325 324 325 327 328 329 327 324 321 318 315 313 311
309 312 313 312 311 314 315 315 315 315 313 311 310 305 295 291 289 289 296 304 306 307 307 307 307 308 311 314 317 322 325 325 325 324 325 327 328 327 324 321 317 312 308 303